[Date Prev][Date Next][Thread Prev][Thread Next] - [Date Index][Thread Index][Author Index]
ISS NEW KEPS - DAY 299
- Subject: [sarex] ISS NEW KEPS - DAY 299
- From: Arthur Rowe <azrowe80@xxxxxxxxxxx>
- Date: Sat, 27 Oct 2007 05:52:57 -0400
ISS (ZARYA)
1 25544U 98067A 07299.95923674 .00013156 00000-0 86870-4 0 2354
2 25544 51.6382 144.3740 0002748 130.1483 16.7911 15.75988536511561
----
Sent via sarex@amsat.org. Opinions expressed are those of the author.
Not an AMSAT member? Join now to support the amateur satellite program!
Subscription settings: http://amsat.org/mailman/listinfo/sarex
AMSAT Home